N7WGJ Weather Reports


Display with metric or nautical units.
time (UTC)temp
F
wind
direction
speed
MPH
gust
MPH
rain 1hr
in
rain 24hr
in
rain mn
in
humidity
%
barometer
mb
20260507085139 52 200 0.0 0.0 0.00 0.00 0.00 85 1021.5
20260507084143 52 185 0.0 0.0 0.00 0.00 0.00 86 1021.6
20260507083126 52 185 0.0 0.0 0.00 0.00 0.00 87 1021.6
20260507082126 52 186 0.0 0.0 0.00 0.00 0.00 87 1021.6
20260507081129 52 184 0.0 0.0 0.00 0.00 0.00 87 1021.6
20260507080147 52 196 0.0 0.0 0.00 0.00 0.00 87 1021.6
20260507075141 52 193 0.0 0.0 0.00 0.00 0.00 88 1021.6
20260507074139 52 192 0.0 0.0 0.00 0.00 0.00 89 1021.5
20260507073140 52 192 0.0 0.0 0.00 0.00 0.00 89 1021.5
20260507072127 52 192 0.0 0.0 0.00 0.00 0.00 90 1021.6
20260507071131 52 194 0.0 0.0 0.00 0.00 0.00 90 1021.5
20260507070151 51 194 0.0 0.0 0.00 0.00 0.00 90 1021.5
20260507065137 51 204 0.0 0.0 0.00 0.00 0.00 90 1021.5
20260507064135 51 194 0.0 5.0 0.00 0.00 0.00 90 1021.5
20260507063133 51 204 0.0 7.0 0.00 0.00 0.00 90 1021.5
20260507062138 51 230 0.0 0.0 0.00 0.00 0.00 91 1021.4
20260507061139 51 200 0.0 0.0 0.00 0.00 0.00 91 1021.5
20260507060155 52 200 0.0 0.0 0.00 0.00 0.00 91 1021.5
20260507055142 52 200 0.0 0.0 0.00 0.00 0.00 91 1021.5
20260507054125 52 243 0.0 0.0 0.00 0.00 0.00 91 1021.6
20260507053128 52 245 0.0 5.0 0.00 0.00 0.00 91 1021.6
20260507052129 52 216 0.0 0.0 0.00 0.00 0.00 90 1021.6
20260507051130 53 243 0.0 0.0 0.00 0.00 0.00 90 1021.6
20260507050139 53 227 0.0 4.0 0.00 0.00 0.00 89 1021.6
20260507045132 53 244 0.0 3.0 0.00 0.00 0.00 88 1021.6
20260507044136 53 256 0.0 8.0 0.00 0.00 0.00 88 1021.5
20260507043130 54 230 0.0 0.0 0.00 0.00 0.00 87 1021.5
20260507042134 54 238 0.0 0.0 0.00 0.00 0.00 86 1021.4
20260507041136 54 216 0.0 0.0 0.00 0.00 0.00 85 1021.5
20260507040139 54 221 0.0 0.0 0.00 0.00 0.00 85 1021.4
20260507035128 54 227 0.0 0.0 0.00 0.00 0.00 85 1021.3
20260507034129 54 202 0.0 0.0 0.00 0.00 0.00 84 1021.2
20260507033131 54 208 0.0 0.0 0.00 0.00 0.00 84 1021.2
20260507032136 55 195 0.0 0.0 0.00 0.00 0.00 84 1021.1
20260507031140 55 205 0.0 0.0 0.00 0.00 0.00 84 1021.0
20260507030137 55 207 0.0 0.0 0.00 0.00 0.00 84 1020.9
20260507025130 55 252 0.0 0.0 0.00 0.00 0.00 84 1020.8
20260507024133 55 216 0.0 0.0 0.00 0.00 0.00 83 1020.8
20260507023135 55 235 0.0 0.0 0.00 0.00 0.00 83 1020.7
20260507022132 55 247 0.0 0.0 0.00 0.00 0.00 83 1020.7
20260507021135 56 201 0.0 0.0 0.00 0.00 0.00 82 1020.7
20260507020136 56 228 0.0 0.0 0.00 0.00 0.00 82 1020.7
20260507015131 56 235 0.0 1.0 0.00 0.00 0.00 82 1020.7
20260507014133 56 212 0.0 8.0 0.00 0.00 0.00 82 1020.7
20260507013134 56 242 0.0 0.0 0.00 0.00 0.00 81 1020.8
20260507012139 56 226 0.0 0.0 0.00 0.00 0.00 81 1020.8
20260507011144 56 205 0.0 0.0 0.00 0.00 0.00 81 1020.8
20260507010149 57 195 0.0 0.0 0.00 0.00 0.00 81 1020.8
20260507005141 57 240 0.0 4.0 0.00 0.00 0.00 81 1020.9
20260507004127 57 212 3.0 10.0 0.00 0.00 0.00 81 1021.0
20260507003128 57 199 1.0 7.0 0.00 0.00 0.00 81 1020.9
20260507002133 57 206 2.0 8.0 0.00 0.00 0.00 81 1020.9
20260507001131 57 219 5.0 10.0 0.00 0.00 0.00 81 1020.9
20260507000151 57 201 0.0 7.0 0.00 0.00 0.00 80 1020.9
20260506235129 58 213 4.0 8.0 0.00 0.00 0.00 79 1021.0
20260506234134 58 211 0.0 3.0 0.00 0.00 0.00 79 1020.9
20260506233137 58 244 1.0 10.0 0.00 0.00 0.00 79 1021.0
20260506232136 58 231 1.0 10.0 0.00 0.00 0.00 78 1021.0
20260506231140 59 257 0.0 3.0 0.00 0.00 0.00 77 1021.0
20260506230139 59 211 3.0 8.0 0.00 0.00 0.00 77 1021.0
20260506225133 59 232 4.0 7.0 0.00 0.00 0.00 78 1021.1
20260506224132 58 286 1.0 6.0 0.00 0.00 0.00 78 1021.1
20260506223133 58 228 0.0 7.0 0.00 0.00 0.00 79 1021.1
20260506222137 58 254 1.0 6.0 0.00 0.00 0.00 79 1021.3
20260506221141 57 184 0.0 10.0 0.00 0.00 0.00 79 1021.4
20260506220139 57 240 0.0 7.0 0.00 0.00 0.00 79 1021.3
20260506215134 57 245 1.0 7.0 0.00 0.00 0.00 81 1021.4
20260506214136 57 235 2.0 8.0 0.00 0.00 0.00 80 1021.5
20260506213139 57 227 4.0 8.0 0.00 0.00 0.00 80 1021.4
20260506212141 57 250 3.0 8.0 0.00 0.00 0.00 80 1021.5
20260506211142 58 242 2.0 9.0 0.00 0.00 0.00 79 1021.5
20260506210140 58 197 5.0 7.0 0.00 0.00 0.00 80 1021.4
20260506205135 57 240 0.0 7.0 0.00 0.00 0.00 80 1021.3
20260506204137 57 269 0.0 8.0 0.00 0.00 0.00 81 1021.3
20260506203135 57 251 1.0 9.0 0.00 0.00 0.00 79 1021.2
20260506202135 58 221 0.0 2.0 0.00 0.00 0.00 81 1021.2
20260506201137 57 279 2.0 8.0 0.00 0.00 0.00 81 1021.2
20260506200138 57 241 0.0 0.0 0.00 0.00 0.00 80 1021.1
20260506195125 57 286 0.0 9.0 0.00 0.00 0.00 80 1021.2
20260506194125 57 271 1.0 9.0 0.00 0.00 0.00 81 1021.1
20260506193125 57 227 2.0 7.0 0.00 0.00 0.00 81 1021.1
20260506192142 57 271 0.0 7.0 0.00 0.00 0.00 81 1020.9
20260506191140 56 183 1.0 12.0 0.00 0.00 0.00 81 1020.9
20260506190140 56 175 2.0 9.0 0.00 0.00 0.00 83 1020.9
20260506185134 56 169 5.0 10.0 0.00 0.00 0.00 83 1020.9
20260506184137 55 216 1.0 7.0 0.00 0.00 0.00 85 1021.0
20260506183137 55 205 0.0 5.0 0.00 0.00 0.00 85 1021.1
20260506182137 55 213 0.0 8.0 0.00 0.00 0.00 86 1021.0
20260506181140 55 196 0.0 0.0 0.00 0.00 0.00 87 1020.7
20260506180139 55 230 0.0 4.0 0.00 0.00 0.00 87 1020.6
20260506175132 54 230 0.0 0.0 0.00 0.00 0.00 88 1020.8
20260506174128 54 245 0.0 0.0 0.00 0.00 0.00 89 1020.8
20260506173130 54 244 0.0 5.0 0.00 0.00 0.00 89 1020.6
20260506172131 54 237 0.0 3.0 0.00 0.00 0.00 89 1020.9
20260506171133 54 217 0.0 10.0 0.00 0.00 0.00 89 1020.8
20260506170147 54 242 2.0 9.0 0.00 0.00 0.00 89 1020.8
20260506165140 54 210 1.0 10.0 0.00 0.00 0.00 88 1020.9
20260506164139 54 215 1.0 8.0 0.00 0.00 0.00 89 1020.6
20260506163139 54 175 4.0 6.0 0.00 0.00 0.00 90 1020.5
20260506162137 53 182 0.0 5.0 0.00 0.00 0.00 92 1020.3
20260506161142 53 197 0.0 1.0 0.00 0.00 0.00 93 1020.2
20260506160144 52 212 0.0 0.0 0.00 0.00 0.00 94 1020.3
20260506155135 52 211 0.0 0.0 0.00 0.00 0.00 95 1020.3
20260506154141 52 196 0.0 0.0 0.00 0.00 0.00 95 1020.5
20260506153140 52 193 0.0 0.0 0.00 0.00 0.00 96 1020.4
20260506152140 52 192 0.0 0.0 0.00 0.00 0.00 96 1020.2
20260506151144 52 191 0.0 0.0 0.00 0.00 0.00 96 1020.2
20260506150146 52 192 0.0 0.0 0.00 0.00 0.00 95 1020.3
20260506145132 52 192 0.0 0.0 0.00 0.00 0.00 96 1020.4
20260506144134 52 180 0.0 0.0 0.00 0.00 0.00 96 1020.3
20260506143135 52 180 0.0 0.0 0.00 0.00 0.00 95 1020.0
20260506142135 52 180 0.0 0.0 0.00 0.00 0.00 95 1019.8
20260506141136 52 192 0.0 0.0 0.00 0.00 0.00 95 1020.1
20260506140138 52 187 0.0 0.0 0.00 0.00 0.00 95 1020.0
20260506135129 52 183 0.0 0.0 0.00 0.00 0.00 95 1020.0
20260506134130 52 197 0.0 0.0 0.00 0.00 0.00 95 1019.8
20260506133133 52 227 0.0 0.0 0.00 0.00 0.00 94 1019.8
20260506132135 52 213 0.0 0.0 0.00 0.00 0.00 94 1019.8
20260506131135 52 169 0.0 5.0 0.00 0.00 0.00 94 1019.6
20260506130155 52 212 0.0 0.0 0.00 0.00 0.00 94 1019.5
20260506125128 52 213 0.0 0.0 0.00 0.00 0.00 94 1019.4
20260506124129 52 212 0.0 0.0 0.00 0.00 0.00 93 1019.4
20260506123128 52 212 0.0 0.0 0.00 0.00 0.00 93 1019.3
20260506122133 52 212 0.0 0.0 0.00 0.00 0.00 93 1019.2
20260506121137 52 213 0.0 0.0 0.00 0.00 0.00 93 1019.3
20260506120133 52 212 0.0 0.0 0.00 0.00 0.00 93 1019.2
20260506115129 52 212 0.0 0.0 0.00 0.00 0.00 93 1019.0
20260506114143 52 211 0.0 0.0 0.00 0.00 0.00 93 1018.8
20260506113126 52 212 0.0 0.0 0.00 0.00 0.00 93 1019.0
20260506112127 52 211 0.0 0.0 0.00 0.00 0.00 93 1019.0
20260506111125 52 212 0.0 0.0 0.00 0.00 0.00 93 1019.0
20260506110148 52 211 0.0 0.0 0.00 0.00 0.00 93 1018.9
20260506105141 52 212 0.0 0.0 0.00 0.00 0.00 92 1018.9
20260506104124 52 211 0.0 0.0 0.00 0.00 0.00 92 1018.7
20260506103127 52 211 0.0 0.0 0.00 0.00 0.00 92 1018.7
20260506102133 53 212 0.0 0.0 0.00 0.00 0.00 92 1018.6
20260506101134 53 212 0.0 0.0 0.00 0.00 0.00 92 1018.5
20260506100154 53 212 0.0 0.0 0.00 0.00 0.00 91 1018.5
20260506095144 53 213 0.0 0.0 0.00 0.00 0.00 91 1018.3
20260506094126 53 213 0.0 0.0 0.00 0.00 0.00 91 1018.2
20260506093127 53 213 0.0 0.0 0.00 0.00 0.00 91 1018.3
20260506092130 52 213 0.0 0.0 0.00 0.00 0.00 92 1018.1
20260506091131 52 209 0.0 0.0 0.00 0.00 0.00 92 1018.1
20260506090145 52 209 0.0 0.0 0.00 0.00 0.00 92 1018.1